Weather in Tyrnovo

Russia / Ryazan Oblast     54°16′47″N   39°35′02″E
temp.,
°C
wind,
m/s
gust,
m/s
humid.,
%
clouds,
%
prec.,
mm/h
press.,
hPa
HPBL,
m
25 february, thu
thu2500:00−15ssw5895100 0.4 1031333
03:00−13ssw5994100 0.6 1028333
06:00−11ssw61095100 0.9 1024328
09:00−6sw71395100 3.1 1020527
12:00+1wsw814100100 1.8 1016461
15:00+2wnw714100100 2.1 1014407
18:00+2wnw513100100 0.0 1014407
21:00+1wnw4999100 0.0 1015224
26 february, fri
fri2600:00+1w4899100 0.0 1015206
03:00+2w510100100 0.3 1015269
06:00+2w51299100 0.1 1013301
09:00+2w614100100 0.3 1012385
12:00+3wsw714100100 0.0 1009361
15:00+2w615100100 0.1 1007384
18:00+2w817100100 0.3 1005488
21:00+2w71695100 0.3 1006595
27 february, sat
sat2700:00+2w71594100 0.1 1004696
03:000w7149190 0.1 1004618
06:00−1w6149396 0.0 1003486
09:000wnw7139697 0.1 1003605
12:00+1wnw7139899 0.1 1002711
15:00+1wnw7139599 0.1 1004737
18:00−1nnw7129495 0.5 1005699
21:00−5nnw379598 0.5 1008177
28 february, sun
sun2800:00−5n4894100 0.1 1010511
03:00−6n5892100 0.2 1012568
06:00−9nnw489595 0.0 1014246
09:00−9nnw499493 0.1 1015385
12:00−6nnw489297 0.0 1017522
15:00−4nnw599099 0.1 1017755
18:00−5nnw399599 0.1 1019297
21:00−5n499697 0.3 1021345
1 march, mon
mon100:00−7nnw339698 0.1 102380
03:00−8nnw379698 0.3 1025185
06:00−9nnw349770 0.0 102659
09:00−8nw369571 0.1 1027158
12:00−5nw47898 0.0 1028477
15:00−3wnw368846 0.0 1027507
18:00−6wsw489369 0.0 1027162
21:00−5w5119482 0.0 1025286